EW7899 Weather Reports


Display with metric or nautical units.
time (UTC)temp
F
wind
direction
speed
MPH
gust
MPH
rain 1hr
in
rain 24hr
in
rain mn
in
humidity
%
barometer
mb
20260901224505 69 128 0.0 0.0 0.00 0.01 0.01 81 1013.9
20260901223011 70 128 0.0 0.0 0.00 0.01 0.01 79 1013.9
20260901221525 71 128 0.0 0.0 0.00 0.01 0.01 77 1013.6
20260901220011 72 129 0.0 0.0 0.00 0.01 0.01 76 1013.5
20260901214526 72 93 0.0 0.0 0.00 0.01 0.01 73 1013.3
20260901213018 72 135 0.0 5.0 0.00 0.01 0.01 71 1013.1
20260901211523 72 116 0.0 7.0 0.00 0.01 0.01 71 1013.0
20260901210011 73 96 0.0 2.0 0.00 0.01 0.01 71 1013.3
20260901204521 73 147 0.0 4.0 0.00 0.01 0.01 71 1013.4
20260901203010 73 106 0.0 1.0 0.00 0.01 0.01 69 1013.2
20260901201519 73 106 0.0 7.0 0.00 0.01 0.01 69 1013.0
20260901200016 73 114 1.0 7.0 0.00 0.01 0.01 68 1013.0
20260901194520 73 123 2.0 8.0 0.00 0.01 0.01 68 1013.1
20260901193010 72 112 0.0 4.0 0.00 0.01 0.01 69 1013.1
20260901191520 72 91 0.0 10.0 0.00 0.01 0.01 70 1013.2
20260901190010 72 86 0.0 2.0 0.00 0.01 0.01 70 1013.4
20260901184518 72 122 0.0 0.0 0.00 0.01 0.01 68 1013.4
20260901183007 72 166 2.0 7.0 0.00 0.01 0.01 68 1013.3
20260901181519 72 102 0.0 5.0 0.00 0.01 0.01 73 1013.4
20260901180004 72 98 0.0 0.0 0.00 0.01 0.01 74 1013.4
20260901174519 72 119 0.0 5.0 0.00 0.01 0.01 72 1013.4
20260901173008 72 108 0.0 6.0 0.00 0.01 0.01 72 1013.5
20260901171518 72 100 1.0 8.0 0.00 0.01 0.01 73 1013.5
20260901170008 71 129 0.0 6.0 0.00 0.01 0.01 73 1013.5
20260901164513 71 74 0.0 0.0 0.00 0.01 0.01 73 1013.6
20260901163022 72 118 0.0 0.0 0.00 0.01 0.01 72 1013.7
20260901161509 71 71 0.0 0.0 0.00 0.01 0.01 72 1014.0
20260901160018 70 95 0.0 6.0 0.00 0.01 0.01 75 1014.0
20260901154508 69 131 0.0 4.0 0.00 0.01 0.01 79 1014.0
20260901153030 68 341 0.0 4.0 0.00 0.01 0.01 80 1014.1
20260901151507 67 359 5.0 8.0 0.00 0.01 0.01 84 1014.3
20260901150014 66 64 0.0 0.0 0.00 0.01 0.01 83 1014.1
20260901144526 66 350 0.0 0.0 0.00 0.01 0.01 85 1014.2
20260901143010 65 125 0.0 0.0 0.00 0.01 0.01 85 1014.1
20260901141516 64 348 0.0 0.0 0.00 0.01 0.01 87 1014.1
20260901140022 63 354 0.0 0.0 0.00 0.01 0.01 89 1013.9
20260901134513 61 122 0.0 0.0 0.00 0.01 0.01 93 1014.2
20260901133001 61 108 0.0 0.0 0.00 0.01 0.01 94 1014.2
20260901131514 60 354 0.0 0.0 0.00 0.01 0.01 94 1014.5
20260901130023 60 4 0.0 0.0 0.00 0.01 0.01 95 1013.9
20260901124517 59 4 0.0 0.0 0.00 0.01 0.01 95 1014.1
20260901123031 59 8 0.0 0.0 0.00 0.01 0.01 95 1014.2
20260901121512 58 4 0.0 0.0 0.00 0.01 0.01 95 1014.4
20260901120022 58 4 0.0 0.0 0.00 0.01 0.01 95 1014.3
20260901114512 58 4 0.0 0.0 0.00 0.01 0.01 95 1014.3
20260901113023 58 4 0.0 0.0 0.00 0.01 0.01 95 1014.6
20260901111511 58 4 0.0 0.0 0.00 0.01 0.01 95 1014.7
20260901110005 58 4 0.0 0.0 0.00 0.01 0.01 95 1014.5
20260901104521 58 138 0.0 0.0 0.00 0.01 0.01 95 1014.2
20260901103021 58 135 0.0 0.0 0.01 0.01 0.01 95 1014.1
20260901101508 58 135 0.0 0.0 0.01 0.01 0.01 95 1014.3
20260901100017 58 138 0.0 0.0 0.01 0.01 0.01 94 1014.1
20260901094509 58 135 0.0 0.0 0.01 0.01 0.01 94 1014.1
20260901093017 58 136 0.0 0.0 0.00 0.00 0.00 94 1014.0
20260901091510 58 135 0.0 0.0 0.00 0.00 0.00 94 1014.4
20260901090019 58 136 0.0 0.0 0.00 0.00 0.00 94 1014.3
20260901084510 58 135 0.0 0.0 0.00 0.00 0.00 93 1014.0
20260901083021 58 135 0.0 0.0 0.00 0.00 0.00 93 1013.9
20260901081511 58 135 0.0 0.0 0.00 0.00 0.00 93 1014.0
20260901080020 58 136 0.0 0.0 0.00 0.00 0.00 93 1013.9
20260901074509 58 137 0.0 0.0 0.00 0.00 0.00 93 1014.3
20260901073018 58 135 0.0 0.0 0.00 0.00 0.00 93 1014.3
20260901071507 58 135 0.0 0.0 0.00 0.00 0.00 93 1014.0
20260901070016 58 135 0.0 0.0 0.00 0.00 0.00 93 1014.2
20260901064511 58 136 0.0 0.0 0.00 0.00 0.00 93 1014.3
20260901063022 58 137 0.0 0.0 0.00 0.00 0.00 93 1014.4
20260901061508 58 137 0.0 0.0 0.00 0.00 0.00 93 1014.6
20260901060017 58 136 0.0 0.0 0.00 0.00 0.00 93 1014.6
20260901054510 58 137 0.0 0.0 0.00 0.00 0.00 93 1014.8
20260901053018 58 135 0.0 0.0 0.00 0.00 0.00 93 1015.0
20260901051526 58 135 0.0 0.0 0.00 0.00 0.00 93 1015.0
20260901050019 58 135 0.0 0.0 0.00 0.00 0.00 93 1015.0
20260901044507 58 137 0.0 0.0 0.00 0.00 0.00 92 1015.2
20260901043022 58 137 0.0 0.0 0.00 0.00 0.00 92 1015.1
20260901041523 58 137 0.0 0.0 0.00 0.00 0.00 92 1015.1
20260901040022 58 135 0.0 0.0 0.00 0.01 0.00 92 1015.3
20260901034513 58 135 0.0 0.0 0.00 0.01 0.00 92 1015.2
20260901033021 58 136 0.0 0.0 0.00 0.01 0.00 92 1015.2
20260901031510 58 137 0.0 0.0 0.00 0.01 0.00 92 1015.1
20260901030018 58 135 0.0 0.0 0.00 0.01 0.00 92 1015.0
20260901024509 58 135 0.0 0.0 0.00 0.01 0.00 92 1015.1
20260901023021 57 137 0.0 0.0 0.00 0.01 0.00 92 1015.1
20260901021530 57 137 0.0 0.0 0.00 0.01 0.00 92 1015.3
20260901020007 58 135 0.0 0.0 0.00 0.01 0.00 91 1015.2
20260901014529 58 135 0.0 0.0 0.00 0.01 0.00 90 1015.5
20260901013016 59 137 0.0 0.0 0.00 0.01 0.00 90 1015.5
20260901011528 59 137 0.0 0.0 0.00 0.01 0.00 90 1015.4
20260901010008 60 137 0.0 0.0 0.00 0.01 0.00 89 1015.4
20260901004513 60 135 0.0 0.0 0.00 0.01 0.00 88 1015.2
20260901003015 61 135 0.0 0.0 0.00 0.01 0.00 87 1014.9
20260901001517 62 135 0.0 0.0 0.00 0.01 0.00 85 1014.9
20260901000004 62 137 0.0 2.0 0.00 0.01 0.00 84 1015.0
20260831234511 63 137 0.0 0.0 0.00 0.01 0.00 83 1015.0
20260831233014 64 135 0.0 0.0 0.00 0.01 0.00 82 1015.1
20260831231516 65 137 0.0 0.0 0.00 0.01 0.00 80 1014.9
20260831230024 66 136 0.0 0.0 0.00 0.01 0.00 79 1014.9